Alturas, CA

12:28 AM PST on December 11, 2019 (GMT -0800)
Alturas Municipal

Weather History for KAAT - October, 2019

Change the Weather History Date:

Friday, October 18, 2019

  Actual Average Record
Temperature  
Mean Temperature 44 °F 46 °F  
Max Temperature 57 °F 64 °F 84 °F (1963)
Min Temperature 32 °F 28 °F 12 °F (1917)
Degree Days  
Heating Degree Days 20 19  
Month to date heating degree days 374 290  
Since 1 July heating degree days 680 667  
Cooling Degree Days 0 0  
Month to date cooling degree days 0 0  
Year to date cooling degree days 217 156  
Moisture  
Dew Point 33 °F    
Average Humidity 68    
Maximum Humidity 92    
Minimum Humidity 37    
Precipitation  
Precipitation 0.01 in 0.03 in 0.54 in (1958)
Month to date precipitation 0.08 0.45  
Year to date precipitation 12.31 10.11  
Sea Level Pressure  
Sea Level Pressure 30.03 in    
Wind  
Wind Speed 4 mph ()    
Max Wind Speed 16 mph    
Max Gust Speed 21 mph    
Visibility 9.9 miles    
Events      
T = Trace of Precipitation, MM = Missing Value Source: Averaged Metar Reports

Daily Weather History Graph

Daily Weather History Graph

Search for Another Location

Airport or City:

Astronomy

Oct. 18, 2019 Rise Set
Actual Time 7:17 AM PDT 6:16 PM PDT
Civil Twilight 6:49 AM PDT 6:44 PM PDT
Nautical Twilight 6:17 AM PDT 7:16 PM PDT
Astronomical Twilight 5:45 AM PDT 7:48 PM PDT
Moon 9:34 PM PDT (10/18) 11:58 AM PDT (10/18)
Length of Visible Light 11h 55m
Length of Day
10h 59m
Waning Gibbous, 78% of the Moon is Illuminated
Oct 18
Waning Gibbous
Oct 21
Last Quarter
Oct 27
New
Nov 4
First Quarter
Nov 12
Full

Hourly Weather History & Observations

Time (PDT) Temp. Windchill Dew Point Humidity Pressure Visibility Wind Dir Wind Speed Gust Speed Precip Events Conditions
12:55 AM 33.1 °F - 30.0 °F 89% 30.03 in 8.0 mi Calm Calm - N/A   Overcast
1:55 AM 33.1 °F 30.0 °F 30.9 °F 92% 30.03 in 10.0 mi West 3.5 mph - N/A   Overcast
2:55 AM 33.1 °F 28.7 °F 30.0 °F 89% 30.03 in 10.0 mi SSE 4.6 mph - N/A   Mostly Cloudy
3:55 AM 34.0 °F 31.0 °F 30.9 °F 89% 30.01 in 10.0 mi NE 3.5 mph - N/A   Overcast
4:55 AM 36.0 °F - 30.9 °F 82% 30.01 in 10.0 mi Calm Calm - N/A   Overcast
5:55 AM 35.1 °F - 33.1 °F 92% 30.02 in 10.0 mi Calm Calm - 0.01 in   Mostly Cloudy
6:55 AM 33.1 °F - 30.9 °F 92% 30.04 in 10.0 mi Calm Calm - N/A   Overcast
7:55 AM 35.1 °F - 32.0 °F 89% 30.04 in 10.0 mi Calm Calm - N/A   Scattered Clouds
8:55 AM 37.9 °F 35.5 °F 33.1 °F 83% 30.06 in 10.0 mi SSE 3.5 mph - N/A   Clear
9:45 AM 45.0 °F 42.6 °F 35.1 °F 68% 30.06 in 10.0 mi Variable 4.6 mph - N/A   Mostly Cloudy
9:55 AM 45.0 °F - 35.1 °F 68% 30.06 in 10.0 mi Calm Calm - N/A   Overcast
10:09 AM 46.9 °F - 35.1 °F 63% 30.06 in 10.0 mi Calm Calm - N/A   Overcast
10:55 AM 48.9 °F - 37.0 °F 64% 30.06 in 10.0 mi West 5.8 mph - N/A   Scattered Clouds
11:23 AM 50.0 °F - 37.0 °F 61% 30.05 in 10.0 mi WSW 11.5 mph - N/A   Mostly Cloudy
11:51 AM 48.2 °F - 35.6 °F 62% 30.05 in 10.0 mi WSW 9.2 mph - N/A   Scattered Clouds
11:55 AM 48.9 °F - 36.0 °F 61% 30.06 in 10.0 mi West 10.4 mph - N/A   Scattered Clouds
12:55 PM 52.0 °F - 35.1 °F 53% 30.02 in 10.0 mi WSW 10.4 mph - N/A   Partly Cloudy
1:55 PM 53.1 °F - 32.0 °F 45% 30.01 in 10.0 mi West 9.2 mph - N/A   Partly Cloudy
2:55 PM 55.9 °F - 30.0 °F 37% 29.99 in 10.0 mi West 11.5 mph - N/A   Partly Cloudy
3:55 PM 55.9 °F - 30.0 °F 37% 30.00 in 10.0 mi West 11.5 mph 20.7 mph N/A   Clear
4:55 PM 54.0 °F - 30.0 °F 40% 29.99 in 10.0 mi SW 9.2 mph 17.3 mph N/A   Overcast
5:55 PM 52.0 °F - 30.0 °F 43% 29.99 in 10.0 mi WSW 6.9 mph - N/A   Overcast
6:55 PM 48.9 °F - 32.0 °F 52% 30.02 in 10.0 mi NW 8.1 mph - N/A   Overcast
7:55 PM 43.0 °F - 30.9 °F 62% 30.03 in 10.0 mi Calm Calm - N/A   Clear
8:55 PM 42.1 °F 40.2 °F 30.9 °F 65% 30.05 in 10.0 mi West 3.5 mph - N/A   Overcast
9:55 PM 42.1 °F 38.4 °F 33.1 °F 70% 30.03 in 10.0 mi SE 5.8 mph - N/A   Overcast
10:55 PM 42.1 °F 39.2 °F 33.1 °F 70% 30.02 in 10.0 mi South 4.6 mph - N/A   Overcast
11:55 PM 43.0 °F 40.3 °F 35.1 °F 74% 30.00 in 10.0 mi SSE 4.6 mph - 0.00 in   Mostly Cloudy